Wetbulb
56.58 56.28 57.92 57.98 58.32 58.11 57.66 58.02 58.46 58.18 59.01 59.23 58.83 58.51 58.57 58.92 59.42 60.29 59.63 59.87 59.45 59.96 59.82 59.63 59.20 59.35 59.68 59.44 59.94 59.94 59.98 59.87 57.61 59.72 61.64 62.88 62.39 62.32 62.11 61.45 61.32 59.89 59.56
56.30 56.22 57.54 58.30 58.21 57.10 57.38 58.24 58.50 58.36 59.49 59.81 59.85 59.59 59.66 58.83 59.76 59.93 59.12 57.85 58.39 59.49 59.79 59.46 59.64 60.15 59.18 58.81 60.78 59.96 60.00 60.44 59.59 58.21 60.50 61.13 61.56 62.09 60.98 60.08 60.62 60.81 57.91
54.88 56.64 57.25 57.81 57.57 56.62 57.56 58.26 58.78 59.12 59.23 60.07 59.71 59.41 59.37 58.75 59.20 59.62 59.96 59.45 59.22 59.42 59.70 59.96 60.05 60.49 59.50 59.40 60.36 60.24 60.60 60.80 60.34 59.65 58.96 59.40 59.04 60.25 59.14 56.54 57.46 56.56 57.76
54.12 56.61 56.41 55.94 56.66 57.38 57.45 58.43 58.63 59.55 59.42 59.59 60.03 60.29 60.36 60.15 59.96 59.56 59.22 58.81 58.80 59.37 59.62 60.56 60.47 60.54 59.90 59.81 59.89 59.82 60.21 59.66 59.52 59.02 57.83 56.64 56.91 55.83 57.17 56.42 54.47 52.89 52.56
54.64 55.95 55.01 55.63 56.80 58.13 58.54 58.43 59.05 59.52 60.04 61.12 61.48 61.51 61.60 61.11 60.70 59.51 59.02 58.72 58.49 58.79 59.25 60.24 60.55 59.87 58.79 58.65 60.07 59.28 59.39 58.74 58.01 56.93 55.68 54.36 53.23 53.07 54.62 53.68 53.74 51.50 52.98
54.45 55.57 55.50 56.17 57.43 57.56 58.01 58.07 58.25 58.22 58.88 60.73 61.73 61.49 61.02 61.16 50.38 53.46 58.05 59.19 59.40 59.15 59.11 59.60 59.36 57.93 56.36 54.37 55.21 55.64 57.71 57.39 56.02 55.56 53.40 52.55 51.36 51.64 50.24 51.11 50.44 50.26 50.09
53.59 55.68 55.91 56.72 57.16 55.73 58.05 57.31 56.10 54.99 55.84 57.19 59.21 59.95 59.10 58.55 49.11 50.02 53.46 60.20 59.68 59.80 59.56 59.72 60.54 59.41 58.67 58.85 53.80 53.58 52.47 52.22 53.33 55.94 54.46 53.53 51.34 51.88 50.96 49.29 49.48 50.35 51.64
53.28 55.57 55.21 56.89 55.62 54.99 56.04 55.05 53.51 53.25 53.62 54.01 55.43 58.08 58.29 55.54 47.30 48.39 52.55 60.56 59.94 60.00 59.56 59.58 59.77 59.42 58.69 58.27 57.57 54.92 54.83 54.33 54.84 55.67 55.47 54.78 53.35 53.08 53.38 53.27 52.82 51.93 51.81
53.71 54.48 54.66 56.82 55.39 54.97 55.03 53.33 52.48 52.77 53.19 52.79 53.58 55.20 56.00 54.41 45.48 47.48 56.42 59.95 59.40 58.88 59.39 59.35 59.74 58.41 48.73 49.19 54.66 52.71 52.19 50.77 46.65 48.36 46.24 44.85 44.89 48.87 52.26 55.16 52.56 51.55 47.26
54.28 54.81 54.49 56.29 55.64 55.06 54.52 53.45 52.64 52.10 53.06 53.39 53.25 54.10 51.55 53.36 45.12 46.75 54.77 58.19 56.93 57.37 57.58 57.34 52.40 55.56 45.67 45.57 53.10 51.34 51.29 49.69 50.19 48.80 46.97 44.39 44.93 45.18 46.57 49.99 50.92 45.34 42.25
55.62 54.89 53.81 54.89 55.10 54.96 54.66 54.22 53.07 52.61 52.42 51.94 51.60 50.59 51.03 51.34 49.75 45.67 48.98 57.00 55.83 55.40 55.70 54.34 53.81 45.57 43.49 43.33 47.77 51.05 50.30 47.91 46.10 47.29 47.36 47.73 47.12 46.96 45.88 46.00 45.78 46.40 44.38
55.13 54.65 53.29 53.23 56.01 55.72 54.82 54.61 54.06 52.56 51.28 50.71 50.53 50.00 49.44 47.74 45.93 45.41 45.85 48.48 49.16 54.42 54.42 53.19 49.06 42.32 43.02 42.57 47.21 44.78 41.24 45.96 48.20 48.59 48.51 48.13 48.20 47.03 47.55 47.03 46.48 45.81 45.49
53.94 53.41 52.13 52.65 53.32 55.14 54.29 54.43 54.02 52.56 51.64 50.42 50.40 50.16 50.45 48.99 45.37 42.62 44.00 43.64 45.86 51.11 52.00 48.62 40.88 39.68 40.33 42.26 41.19 40.79 42.95 47.48 48.43 47.51 46.45 45.25 46.15 46.63 44.99 44.68 43.97 43.61 42.95
52.63 52.25 51.83 52.60 51.84 54.52 55.25 55.34 55.45 53.85 52.52 52.83 51.51 49.87 50.26 49.94 46.78 43.04 45.83 46.18 45.45 46.57 43.68 41.97 41.18 40.69 40.89 41.44 42.48 43.49 45.55 48.71 48.60 46.09 43.99 43.23 42.75 42.90 42.26 42.41 42.03 40.78 39.82
52.44 51.42 51.48 53.16 53.21 54.64 55.61 55.54 55.84 55.85 55.21 54.72 54.22 53.48 51.41 50.86 49.69 44.39 43.76 45.92 47.53 45.70 39.69 38.34 38.04 39.12 39.04 38.74 38.98 42.10 45.70 47.66 45.70 43.66 42.86 41.60 41.69 41.74 40.99 40.86 40.03 38.29 37.37
51.75 50.98 51.17 52.79 53.74 54.88 55.15 52.90 43.03 46.53 45.75 45.70 46.51 51.70 53.27 49.65 44.89 42.08 40.30 40.82 39.83 38.75 40.14 38.01 37.09 38.53 39.94 39.15 39.81 40.74 44.62 46.74 44.87 43.68 41.96 42.31 41.86 41.23 40.38 38.77 38.34 37.58 37.01
53.08 52.08 51.32 51.74 54.12 54.59 55.04 55.01 53.66 48.94 43.69 43.16 42.08 44.67 45.68 48.98 42.22 41.47 39.71 38.81 37.43 39.03 42.30 39.63 39.15 38.84 40.42 41.10 42.94 43.90 45.03 46.54 44.26 43.52 42.65 41.28 41.48 40.57 39.87 38.96 39.04 37.92 35.55
54.21 47.37 52.08 52.65 54.13 54.93 55.19 55.24 55.43 54.50 53.23 51.84 43.34 43.71 41.23 41.02 41.48 40.94 38.07 40.21 40.05 41.21 43.78 43.06 41.88 41.34 40.65 42.51 44.60 46.17 45.72 43.74 42.93 41.85 41.34 40.87 41.61 41.03 39.89 39.35 39.57 37.71 36.51
54.72 53.13 53.64 52.94 53.84 53.64 54.95 55.00 54.84 54.19 53.74 52.21 45.54 41.21 38.23 38.60 38.72 38.02 38.22 47.70 45.81 44.09 45.47 45.33 45.50 45.26 45.05 44.96 46.39 46.90 46.44 45.11 43.65 42.05 40.88 41.60 42.04 42.36 40.76 40.32 39.15 35.83 34.66
55.67 49.42 50.54 53.16 53.08 53.28 54.04 53.95 53.67 53.35 52.46 52.38 50.17 51.51 40.68 40.95 43.45 41.50 41.71 46.16 46.36 47.57 48.87 48.95 48.42 48.73 49.49 49.18 47.27 47.24 46.18 42.89 42.58 42.53 41.87 42.54 43.11 43.02 41.16 39.95 38.19 36.73 35.74
56.28 52.32 47.10 52.97 53.40 53.79 53.81 53.77 53.93 53.58 52.93 51.98 51.79 50.13 40.43 47.17 48.15 45.04 44.07 46.02 48.34 46.69 47.32 49.81 49.20 48.78 50.82 50.16 48.21 47.22 45.56 44.68 44.22 43.38 43.25 42.78 43.34 41.99 40.78 40.25 39.34 37.75 36.74
56.64 54.30 53.80 53.94 53.60 53.96 53.86 54.18 53.81 53.64 53.25 52.56 52.35 49.01 37.15 47.90 49.60 47.44 46.79 47.46 48.92 48.97 47.90 48.31 49.00 50.42 50.74 48.98 47.66 46.59 46.20 45.33 44.90 43.93 43.60 43.58 43.39 41.73 40.92 40.10 38.41 37.22 36.71
56.73 54.85 54.68 55.12 54.60 48.21 49.57 53.93 53.70 53.57 53.46 53.20 52.72 50.08 43.00 46.89 49.87 49.35 48.75 48.79 49.03 49.30 47.44 48.00 48.88 49.17 49.24 49.07 48.95 48.54 47.22 46.18 45.69 44.88 44.11 43.39 42.14 41.05 40.72 38.95 38.41 36.12 35.42
57.14 56.19 54.94 55.15 54.60 53.40 52.96 53.00 53.46 48.10 53.47 53.17 52.42 51.70 49.38 48.21 49.42 50.30 49.68 49.16 49.13 49.41 49.74 50.20 49.97 50.01 49.37 48.17 48.52 48.29 48.01 46.54 46.42 45.66 44.87 43.58 42.28 40.41 40.37 39.06 36.90 36.11 34.11
57.21 56.75 55.69 55.15 54.89 53.46 53.11 53.48 52.84 52.41 52.28 52.80 51.68 52.15 51.55 50.29 49.73 49.74 50.46 49.28 50.30 50.55 49.70 50.49 50.09 49.16 48.08 47.15 45.94 45.74 39.55 38.88 44.76 42.56 44.98 44.25 42.79 40.97 39.49 37.05 35.54 33.24 31.85
56.35 57.11 56.24 55.48 55.28 54.10 54.12 52.76 53.03 53.43 52.37 52.25 52.38 51.59 51.20 50.46 50.90 51.69 50.51 50.65 49.39 49.52 48.69 47.68 47.09 46.90 45.11 44.42 43.63 38.86 37.19 37.72 40.07 39.60 44.23 43.83 42.22 39.51 38.15 35.41 33.42 32.15 31.05
MSLP
1007.43 1007.60 1007.70 1007.76 1007.86 1007.81 1007.74 1007.87 1007.69 1007.58 1007.63 1007.70 1007.90 1008.31 1008.78 1009.10 1009.35 1009.58 1009.94 1010.30 1010.64 1010.99 1011.36 1011.66 1012.08 1012.23 1012.70 1013.11 1013.33 1013.70 1014.05 1014.32 1015.15 1016.12 1016.45 1017.06 1017.88 1018.54 1019.38 1019.97 1020.37 1020.88 1021.29
1007.34 1007.61 1007.79 1007.82 1008.01 1008.09 1007.96 1008.03 1007.92 1007.86 1007.76 1007.85 1008.08 1008.51 1008.99 1009.41 1009.67 1009.94 1010.19 1010.63 1010.95 1011.31 1011.59 1012.02 1012.51 1012.78 1013.04 1013.41 1013.70 1014.12 1014.54 1014.88 1015.14 1015.93 1016.86 1017.44 1018.02 1018.95 1019.51 1020.16 1020.60 1020.98 1021.15
1007.36 1007.64 1007.93 1007.98 1008.20 1008.30 1008.15 1008.20 1008.16 1008.07 1008.11 1008.27 1008.50 1008.86 1009.27 1009.66 1009.96 1010.29 1010.47 1010.79 1011.20 1011.57 1011.98 1012.35 1012.66 1012.96 1013.42 1013.78 1014.14 1014.51 1014.97 1015.41 1015.79 1016.39 1017.17 1017.58 1018.48 1019.17 1019.94 1020.51 1020.86 1021.06 1021.22
1007.39 1007.70 1007.91 1008.08 1008.29 1008.32 1008.41 1008.46 1008.38 1008.31 1008.41 1008.67 1009.01 1009.32 1009.61 1009.94 1010.36 1010.74 1011.01 1011.34 1011.67 1012.03 1012.32 1012.57 1012.94 1013.32 1013.60 1014.05 1014.51 1014.87 1015.21 1015.76 1016.36 1016.89 1017.59 1018.36 1019.03 1019.77 1020.20 1020.83 1021.35 1021.53 1021.54
1007.36 1007.71 1007.92 1008.12 1008.24 1008.37 1008.65 1008.69 1008.68 1008.75 1008.87 1008.93 1009.21 1009.55 1009.91 1010.32 1010.80 1011.18 1011.47 1011.79 1012.05 1012.42 1012.74 1012.99 1013.33 1013.71 1014.09 1014.42 1014.76 1015.46 1015.75 1016.36 1016.89 1017.51 1018.25 1018.90 1019.54 1020.10 1020.56 1021.05 1021.36 1021.39 1021.36
1007.29 1007.65 1007.92 1008.15 1008.33 1008.60 1008.82 1009.05 1009.18 1009.17 1009.32 1009.19 1009.43 1009.77 1010.27 1010.60 1010.91 1011.30 1011.67 1012.11 1012.41 1012.77 1013.10 1013.47 1013.90 1014.32 1014.63 1014.94 1015.50 1015.93 1016.30 1016.85 1017.21 1017.65 1018.50 1019.09 1019.65 1020.00 1020.56 1020.93 1021.43 1022.05 1022.17
1007.17 1007.57 1007.89 1008.17 1008.45 1008.76 1009.01 1009.30 1009.62 1009.70 1009.71 1009.80 1010.01 1010.17 1010.64 1010.77 1011.18 1011.48 1011.91 1012.27 1012.63 1012.96 1013.35 1013.75 1014.17 1014.46 1015.05 1015.62 1016.15 1016.48 1017.00 1017.36 1017.48 1017.54 1018.09 1018.70 1019.16 1019.58 1020.25 1021.02 1021.18 1021.84 1022.25
1007.05 1007.46 1007.83 1008.13 1008.60 1008.92 1009.22 1009.56 1009.90 1010.12 1010.30 1010.32 1010.52 1010.68 1010.93 1011.36 1011.63 1011.99 1012.26 1012.63 1013.00 1013.24 1013.70 1014.07 1014.57 1015.17 1015.64 1016.12 1016.60 1016.96 1017.09 1017.27 1017.54 1017.50 1017.70 1018.20 1018.72 1019.23 1019.60 1019.99 1020.52 1021.63 1022.26
1006.82 1007.21 1007.69 1008.05 1008.71 1009.16 1009.49 1009.85 1010.17 1010.33 1010.63 1010.87 1011.00 1011.20 1011.43 1012.11 1012.11 1012.45 1012.69 1013.03 1013.52 1013.95 1014.29 1014.61 1015.02 1015.55 1016.08 1016.52 1016.86 1017.33 1017.53 1017.75 1017.98 1017.92 1018.31 1018.71 1018.88 1019.04 1019.40 1020.31 1021.08 1021.64 1022.48
1006.40 1006.78 1007.36 1007.88 1008.50 1009.15 1009.63 1010.04 1010.32 1010.56 1010.79 1011.05 1011.44 1011.61 1011.86 1012.41 1012.73 1012.81 1013.01 1013.35 1013.86 1014.32 1014.74 1015.14 1015.59 1015.98 1016.40 1016.68 1017.04 1017.43 1017.66 1018.16 1018.29 1018.62 1018.95 1019.29 1019.43 1019.90 1019.86 1019.70 1020.46 1021.47 1022.44
1005.93 1006.61 1007.13 1007.74 1008.24 1008.80 1009.52 1009.95 1010.48 1010.91 1011.12 1011.44 1011.83 1012.14 1012.25 1012.44 1012.92 1013.04 1013.27 1013.54 1014.00 1014.55 1015.00 1015.57 1015.89 1016.22 1016.48 1016.80 1017.06 1017.36 1017.46 1017.83 1018.48 1018.69 1019.26 1019.69 1019.96 1020.24 1020.51 1020.70 1020.67 1021.01 1021.89
1005.67 1006.43 1007.03 1007.55 1008.04 1008.71 1009.31 1009.97 1010.42 1010.92 1011.36 1011.81 1012.21 1012.64 1012.79 1012.88 1013.03 1013.30 1013.55 1013.67 1014.06 1014.63 1015.16 1015.54 1015.90 1016.22 1016.59 1016.91 1017.18 1017.40 1017.59 1017.90 1018.43 1019.08 1019.59 1020.22 1020.70 1020.88 1020.92 1020.81 1021.18 1021.80 1022.47
1005.36 1006.18 1006.82 1007.43 1007.96 1008.60 1009.23 1009.83 1010.49 1010.85 1011.31 1011.99 1012.39 1012.83 1013.06 1013.24 1013.36 1013.53 1013.71 1013.98 1014.36 1014.82 1015.12 1015.51 1015.97 1016.33 1016.58 1016.97 1017.10 1017.35 1017.60 1017.96 1018.64 1019.48 1020.10 1020.55 1020.69 1020.88 1021.25 1021.84 1022.47 1022.77 1023.43
1004.95 1005.81 1006.57 1007.30 1007.93 1008.44 1009.02 1009.60 1010.12 1010.68 1011.16 1011.67 1012.25 1012.78 1013.07 1013.48 1013.86 1013.97 1014.09 1014.37 1014.71 1015.06 1015.54 1016.17 1016.46 1016.74 1016.93 1017.13 1017.61 1017.85 1017.97 1018.30 1018.68 1019.35 1020.04 1020.49 1021.00 1021.41 1021.76 1022.05 1022.79 1023.45 1024.35
1004.42 1005.33 1006.23 1006.92 1007.54 1008.23 1008.67 1009.11 1009.63 1009.97 1010.18 1010.97 1011.55 1012.07 1012.76 1013.25 1013.27 1013.46 1013.86 1014.43 1014.72 1015.15 1015.95 1016.58 1016.98 1017.20 1017.39 1017.68 1017.79 1017.88 1018.00 1018.31 1018.87 1019.34 1019.92 1020.50 1021.14 1021.61 1022.23 1022.58 1023.16 1023.84 1024.49
1004.01 1004.88 1005.62 1006.41 1007.25 1007.88 1008.51 1009.30 1009.50 1009.59 1009.95 1010.18 1010.61 1011.17 1011.86 1011.99 1012.40 1012.96 1013.42 1013.87 1014.36 1014.86 1015.77 1016.36 1016.79 1017.00 1017.22 1017.40 1017.69 1018.09 1018.30 1018.50 1018.87 1019.34 1019.98 1020.34 1021.02 1021.70 1022.45 1023.12 1023.43 1024.08 1024.74
1002.93 1004.01 1004.93 1005.72 1006.54 1007.30 1008.06 1008.72 1009.47 1009.91 1009.92 1010.39 1010.67 1010.80 1011.16 1011.59 1012.22 1012.67 1013.11 1013.69 1014.17 1014.66 1014.94 1015.66 1016.09 1016.38 1016.60 1017.02 1017.41 1017.76 1018.20 1018.58 1018.93 1019.41 1019.89 1020.49 1021.09 1021.73 1022.34 1023.06 1023.66 1023.95 1025.21
1002.26 1003.06 1003.95 1004.77 1005.54 1006.33 1007.04 1007.70 1008.37 1009.16 1009.80 1010.28 1010.56 1010.94 1011.26 1011.57 1011.88 1012.36 1013.09 1013.94 1014.79 1014.75 1014.50 1014.66 1014.99 1015.34 1015.83 1016.27 1016.68 1017.14 1017.64 1018.25 1018.89 1019.43 1019.87 1020.29 1020.78 1021.33 1022.06 1022.61 1023.36 1024.04 1024.62
1001.67 1002.60 1003.19 1004.01 1004.74 1005.41 1006.25 1006.98 1007.63 1008.25 1008.85 1009.46 1010.29 1010.81 1011.00 1011.39 1011.90 1012.55 1012.99 1012.82 1013.45 1013.83 1013.85 1013.91 1014.00 1014.33 1014.81 1015.21 1015.74 1016.54 1017.04 1017.54 1018.15 1018.77 1019.45 1020.01 1020.61 1021.05 1021.74 1022.54 1023.27 1023.46 1024.13
1000.83 1001.64 1002.51 1003.30 1004.13 1004.90 1005.56 1006.29 1006.98 1007.60 1008.20 1008.75 1009.53 1009.89 1010.76 1011.39 1011.85 1012.17 1012.55 1012.40 1012.42 1012.41 1012.66 1012.89 1013.18 1013.56 1014.00 1014.55 1015.23 1015.86 1016.67 1017.43 1017.96 1018.35 1018.83 1019.38 1020.09 1020.66 1021.69 1022.35 1023.36 1024.33 1024.55
1000.05 1001.17 1001.86 1002.77 1003.43 1003.96 1004.67 1005.27 1005.88 1006.59 1007.17 1007.76 1008.14 1008.72 1009.10 1010.05 1010.44 1010.81 1011.20 1011.43 1011.23 1011.28 1011.54 1011.98 1012.43 1012.86 1013.25 1013.65 1014.29 1014.83 1015.23 1016.00 1016.83 1017.59 1018.30 1018.84 1019.33 1020.06 1021.39 1022.39 1022.71 1022.92 1023.60
999.22 1000.20 1001.19 1001.74 1002.55 1003.24 1003.73 1004.30 1005.02 1005.54 1006.05 1006.62 1007.16 1007.90 1008.30 1008.98 1009.15 1009.30 1009.56 1009.87 1009.94 1010.08 1010.33 1010.68 1011.11 1011.53 1011.96 1012.50 1013.19 1013.89 1014.66 1015.33 1015.83 1017.02 1017.73 1018.40 1019.06 1019.84 1021.07 1021.24 1022.28 1023.48 1023.40
998.52 999.50 1000.37 1001.09 1001.68 1002.33 1003.11 1003.52 1004.03 1004.56 1004.92 1005.37 1006.03 1006.85 1007.60 1007.79 1007.81 1007.89 1007.96 1008.17 1008.56 1008.87 1009.09 1009.51 1009.98 1010.51 1010.85 1011.32 1011.94 1012.47 1013.11 1013.71 1014.68 1015.99 1017.32 1018.56 1019.00 1020.18 1021.41 1021.34 1022.65 1022.99 1023.69
997.74 998.52 999.29 999.95 1000.68 1001.46 1002.09 1002.60 1002.96 1003.34 1003.77 1004.28 1004.79 1005.32 1005.91 1006.31 1006.61 1006.74 1006.80 1007.09 1007.50 1007.75 1008.08 1008.48 1008.83 1009.09 1009.74 1010.28 1010.73 1011.26 1011.75 1013.00 1014.12 1014.66 1016.26 1017.61 1019.54 1020.53 1021.51 1022.60 1023.09 1022.89 1023.35
997.13 997.91 998.50 998.93 999.59 1000.23 1000.99 1001.51 1001.99 1002.45 1002.88 1003.20 1003.66 1004.08 1004.52 1004.94 1005.26 1005.49 1005.71 1006.12 1006.70 1007.18 1007.37 1007.63 1007.95 1008.36 1008.99 1009.56 1010.29 1010.97 1012.11 1012.93 1013.67 1014.64 1015.78 1017.61 1018.81 1020.32 1021.63 1022.39 1023.42 1023.63 1023.85
996.54 997.36 998.10 998.56 998.92 999.42 1000.12 1000.70 1000.96 1001.40 1001.83 1002.13 1002.39 1002.73 1003.14 1003.64 1003.94 1004.46 1004.90 1005.54 1005.97 1006.32 1006.68 1007.05 1007.47 1007.82 1008.60 1009.43 1010.15 1011.14 1012.16 1013.09 1014.17 1014.89 1016.39 1017.09 1018.49 1020.05 1021.57 1022.36 1023.01 1023.46 1023.92
Wind_Speed
4 3 4 2 3 2 3 3 1 2 4 4 5 5 6 6 6 7 5 8 8 7 5 7 7 6 5 5 5 5 5 6 8 4 6 8 11 10 6 4 4 3 3
5 5 5 3 4 3 3 3 3 3 4 5 6 6 7 6 8 10 9 6 8 8 6 8 8 6 7 6 5 6 5 4 8 11 6 4 11 8 5 5 3 3 3
5 6 5 3 4 4 3 3 3 4 5 6 6 6 7 6 9 8 7 6 7 6 7 8 8 10 8 7 7 7 7 6 6 7 5 4 4 4 4 4 2 2 0
6 6 5 4 4 3 3 3 3 4 5 6 6 7 8 8 8 7 7 7 7 6 5 6 9 9 10 9 8 7 8 8 7 7 6 4 3 3 4 3 2 0 3
6 6 5 4 4 4 4 4 4 6 5 6 8 7 8 8 6 7 9 6 7 7 5 6 7 9 10 9 7 7 7 6 5 5 4 3 3 3 3 3 2 1 2
7 7 5 5 4 5 5 5 5 5 5 5 6 6 7 5 10 10 8 7 7 8 7 7 9 12 12 14 13 11 7 4 3 3 2 3 3 3 3 3 3 2 2
7 6 6 6 5 6 5 5 5 5 5 5 4 6 5 6 10 10 9 6 7 6 7 7 8 7 9 8 7 6 2 5 1 5 6 5 5 6 6 3 3 3 3
7 7 6 6 6 6 6 6 5 4 5 4 5 5 6 4 9 10 11 7 6 6 6 5 8 8 7 7 5 1 1 5 5 3 6 6 4 7 5 5 6 3 3
8 8 7 7 7 6 6 6 3 5 4 4 4 6 7 5 6 9 9 7 7 6 5 5 6 6 8 8 5 5 4 4 7 8 11 10 10 9 7 5 4 4 2
10 10 8 7 9 7 7 6 3 3 5 5 6 5 7 6 7 9 8 5 7 5 4 5 8 6 9 8 6 6 7 3 5 6 6 8 7 7 6 2 5 4 3
11 8 8 7 9 8 7 4 5 5 6 6 6 4 6 6 6 9 10 6 6 5 5 4 3 8 9 9 8 5 5 7 5 6 6 5 5 6 5 5 5 6 5
11 10 8 8 7 7 9 5 6 7 6 6 6 4 3 3 5 8 10 7 7 6 5 4 4 8 8 10 8 7 9 8 5 5 5 4 4 4 5 8 10 11 9
12 10 8 7 6 8 8 7 5 6 6 5 4 4 3 2 2 4 7 11 9 5 4 6 9 7 8 5 8 11 8 5 5 5 5 3 3 5 7 9 10 13 12
13 11 8 10 7 6 5 7 7 6 5 5 5 5 4 3 3 2 3 4 6 6 8 6 5 6 6 6 5 3 4 5 5 6 4 4 4 4 4 4 7 5 6
12 10 10 9 10 8 7 8 8 7 9 8 6 6 6 4 6 8 8 5 5 5 8 4 2 2 4 3 2 3 4 5 5 4 4 4 4 4 3 3 3 2 5
12 9 9 9 8 8 7 3 6 2 10 11 12 9 5 8 13 15 13 9 12 16 4 4 4 4 5 5 5 4 2 4 4 5 4 6 6 5 6 3 3 4 7
15 11 9 9 10 9 8 8 8 1 3 7 8 14 13 12 12 14 14 10 13 9 4 5 5 6 6 6 5 4 4 4 5 5 6 6 6 6 8 7 6 7 3
13 15 11 10 10 10 10 10 8 8 9 5 6 8 8 6 11 14 12 11 3 4 3 6 7 8 6 7 7 6 5 6 5 6 6 6 7 9 8 7 7 5 6
12 10 11 10 10 10 9 8 8 8 8 5 3 2 4 4 7 9 15 6 7 7 6 5 7 8 7 7 7 5 6 8 8 8 7 7 7 8 6 5 5 7 5
12 14 12 10 9 9 8 9 8 7 7 7 6 8 5 5 5 5 7 9 7 9 9 8 6 5 7 7 7 8 7 7 7 8 8 8 7 7 8 7 6 5 4
10 9 11 9 10 10 10 10 10 9 9 8 9 8 12 9 8 7 8 9 10 9 8 8 6 6 7 8 8 9 10 10 10 9 8 9 10 10 7 6 6 7 6
10 10 11 11 9 10 10 10 9 10 10 9 8 6 13 10 8 8 9 10 11 10 9 9 9 9 10 10 10 10 10 10 11 9 9 10 10 9 6 9 7 4 5
10 11 11 9 9 9 7 9 10 10 10 10 9 7 8 10 10 9 10 10 9 10 9 9 10 8 8 9 10 11 13 13 12 10 10 8 9 9 6 8 5 5 5
10 11 12 11 9 9 10 11 10 11 11 10 9 9 9 9 10 11 9 8 9 9 9 10 10 13 10 9 9 10 10 11 10 13 16 13 10 8 7 4 5 7 7
9 10 11 11 11 11 10 11 10 10 11 10 9 9 9 9 9 9 8 7 7 7 9 10 8 10 12 14 13 13 12 15 17 18 14 14 14 11 8 6 5 5 6
7 9 8 8 8 8 9 9 11 10 10 11 10 10 10 10 10 9 7 6 6 7 8 7 9 13 16 14 19 21 20 20 17 18 13 14 13 9 8 8 10 6 7
Wind_Direction
175 170 135 171 95 73 49 36 57 14 103 129 133 129 115 113 113 126 114 134 135 124 107 109 102 109 105 96 87 89 76 98 118 102 115 127 131 134 123 116 130 153 169
178 146 136 157 114 84 55 39 40 45 75 113 113 113 110 110 125 131 129 115 122 115 112 114 122 120 106 103 110 99 98 87 122 119 122 139 126 125 122 138 148 171 164
160 139 145 148 113 105 80 69 56 64 91 97 94 103 105 104 119 125 125 93 86 101 114 128 121 130 120 109 110 115 114 101 100 121 112 71 79 101 101 89 106 66 242
162 144 150 152 134 141 89 69 67 64 84 95 93 92 103 104 108 109 110 105 98 94 97 120 120 129 125 112 105 102 111 102 96 102 99 88 86 61 79 112 97 123 237
157 148 167 140 134 120 103 82 73 72 80 102 110 109 108 106 111 112 120 114 111 108 97 96 94 101 101 102 115 107 99 99 103 104 105 97 101 104 149 161 157 38 330
159 163 160 139 130 123 125 117 88 88 85 105 107 124 110 111 124 117 116 118 120 129 127 109 111 111 103 97 97 98 97 114 123 112 95 108 128 146 122 117 100 74 6
161 159 164 145 136 130 129 109 100 81 90 86 91 109 115 135 147 136 130 113 112 100 108 120 121 107 114 113 113 105 128 191 155 148 141 167 150 164 136 132 130 142 190
164 159 163 148 137 138 135 125 106 92 93 109 116 104 110 105 128 126 111 113 106 94 108 103 113 123 127 127 124 71 276 161 151 173 161 160 150 158 147 160 159 140 70
172 167 168 149 135 140 137 137 117 113 95 85 111 116 112 115 130 124 113 113 112 107 108 117 125 128 137 126 128 133 119 74 42 94 90 96 93 137 134 117 150 130 117
178 177 164 153 144 149 148 154 126 124 117 110 98 109 120 132 159 140 120 116 117 122 105 112 127 139 158 174 154 156 125 131 128 116 91 67 84 85 118 111 133 112 113
175 168 159 159 153 152 146 144 134 128 118 109 101 93 113 134 155 149 135 136 139 139 139 145 156 167 178 177 160 160 164 146 120 105 104 102 75 67 73 84 97 119 105
164 167 168 160 160 153 149 145 142 135 130 129 121 94 82 98 118 152 150 136 141 141 163 158 153 165 174 174 164 161 150 122 119 111 102 93 109 106 78 76 72 73 62
161 169 167 162 158 157 154 153 144 149 143 153 152 155 166 146 102 98 149 142 144 128 144 140 127 137 133 128 149 152 134 107 115 117 131 113 107 115 109 96 86 83 68
168 170 163 166 161 158 158 162 160 164 158 160 162 174 178 171 175 170 135 139 125 93 102 101 112 114 101 117 116 124 123 142 145 136 126 116 117 103 112 112 109 99 96
170 167 170 176 178 174 181 175 176 190 176 171 183 171 164 192 213 184 170 172 172 144 110 96 99 98 128 140 123 139 130 128 132 140 139 126 120 125 88 96 107 102 95
172 171 173 171 177 180 174 150 50 159 192 184 167 167 202 205 174 184 196 184 141 144 107 148 180 179 179 177 171 162 156 151 150 138 130 141 139 128 121 97 84 103 122
179 174 170 170 175 174 180 183 195 338 156 195 199 187 186 188 184 186 190 169 162 147 154 167 178 187 192 181 177 166 172 172 149 151 151 145 133 129 138 140 136 125 119
180 171 173 179 180 180 183 189 190 193 205 206 205 197 232 220 190 189 155 113 123 271 188 180 193 193 182 187 182 179 160 151 155 155 154 150 151 151 150 148 141 139 144
173 177 179 177 181 182 181 184 188 189 196 189 125 168 135 154 182 149 166 183 188 205 207 204 196 188 189 188 183 168 166 173 170 162 156 156 156 156 144 133 144 145 142
182 175 175 174 170 175 178 180 183 188 188 188 196 209 145 129 176 171 190 209 204 209 205 210 202 184 187 176 167 167 165 160 167 169 165 156 151 144 137 150 148 160 170
179 167 172 169 177 182 182 187 188 187 194 197 206 191 176 187 203 184 190 205 212 209 207 207 196 184 186 180 176 180 173 170 174 170 164 160 158 155 144 157 150 160 140
175 169 178 183 178 184 189 188 188 194 198 201 208 195 180 200 202 196 198 203 207 211 208 197 198 197 193 183 178 171 175 178 169 169 168 164 162 149 158 145 130 174 133
169 166 180 184 185 181 178 189 191 197 201 203 199 188 180 204 212 210 210 207 201 202 197 193 195 192 183 179 182 180 177 181 172 158 156 150 142 127 148 118 162 146 139
175 176 180 185 180 183 186 193 198 199 202 203 198 196 193 200 209 219 216 205 200 205 200 202 203 200 190 179 172 173 164 155 158 139 135 127 127 121 119 119 180 152 131
171 179 182 183 185 187 188 194 195 198 203 204 202 203 202 200 206 211 211 196 203 207 201 200 197 187 175 164 158 146 128 130 135 133 131 132 135 131 138 152 158 143 133
157 173 185 185 186 180 190 194 201 198 198 207 209 203 198 199 208 208 199 191 187 189 181 172 167 161 150 143 138 134 132 131 127 122 133 135 140 134 154 159 158 154 144